星链-35307(STARLINK-35307)

导读 | 豆包AI

STARLINK-35307是美国SpaceX公司星链(Starlink)星座的组网卫星,于2025年10月16日发射入轨,属于星链全球卫星互联网项目的组成部分。星链项目旨在通过近地轨道卫星星座,为全球偏远地区提供高速低延迟宽带互联网服务,该卫星采用氪离子霍尔推进系统,依托地面测控分阶段完成轨道构型,最终将运行于550公里左右近地轨道,为星座补网增容,助力全球网络覆盖能力提升。

基本信息
目录编号:
66013
目录名称:
STARLINK-35307
国际标识:
2025-232J
轨道中心:
EARTH
卫星名称:
星链-35307
卫星全名:
星链-35307(STARLINK-35307)
卫星状态:
在轨 (已飞行149 天)
发射日期:
2025-10-16 UTC
国别 :
美国 (US)
星等 :
--
轨道信息
数据来源 国际轨道数据
星历时间: 2026-03-13T14:34:53+0800
1天前
查看轨道信息
半长轴: 6853.35km
偏心率: 0.0001288
轨道倾角: 53.158°
近地点辐角 85.053°
升交点赤经 87.316°
平近点角 275.061°
近地点: 474.33km
远地点: 476.096km
周期: 94.105分钟
每日圈数: 15.302007
详细信息
固有亮度:
5
最大亮度:
2.5
卫星平台:
Starlink V1.0
覆盖范围:
全球
运营商:
太空探索技术公司
运营商所在国:
美国
制造商(研发单位):
太空探索技术公司
制造商所在国:
美国
使用方式:
暂无
卫星简介
Starlink 计划是 SpaceX 推出的全球卫星互联网项目,通过发射低轨道卫星,为全球尤其是偏远地区提供高速、低延迟的互联网服务。自 2019 年起,Starlink 已部署数千颗卫星,旨在缩小全球数字鸿沟,推动互联网普及。该项目还为军事、航空等行业提供通信支持,带来广泛经济效益。
2D轨道图
3D轨道图
轨道高度分析图
轨道倾角分析图
轨道综合分析图
查看轨道综合分析图